AirNav   Everest Fuels
 
 780 users online  

2TX9 Buzzard Creek Airstrip
San Saba, Texas, USA

GOING TO SAN SABA?


FAA INFORMATION EFFECTIVE 16 JULY 2020

Location

FAA Identifier: 2TX9
Lat/Long: 31-19-40.1300N 098-48-17.1700W
31-19.668833N 098-48.286167W
31.3278139,-98.8047694
(estimated)
Elevation: 1309 ft. / 399 m
From city: 10 miles NW of SAN SABA, TX
Time zone: UTC -5 (UTC -6 during Standard Time)
Zip code: 76871

Airport Operations

Airport use: Private use. Permission required prior to landing
Activation date: 04/2015
Control tower: no
ARTCC: HOUSTON CENTER
FSS: SAN ANGELO FLIGHT SERVICE STATION
Attendance: 
Wind indicator: yes
Segmented circle: no

Airport Communications

WX AWOS-3 at 81R (7 nm SE): PHONE 325-372-6027

Nearby radio navigation aids

VOR radial/distance  VOR name  Freq  Var
LLOr350/31.9LLANO VORTAC108.2008E
BWDr159/34.8BROWNWOOD VOR/DME108.6008E
AGJr279/35.1GOOCH SPRINGS VORTAC112.5005E

Airport Services

Runway Information

Runway 16/34

Dimensions: 2655 x 80 ft. / 809 x 24 m
Surface: turf
RUNWAY 16  RUNWAY 34
Traffic pattern: leftright

Airport Ownership and Management from official FAA records

Ownership: Privately-owned
Owner: DAVID B. AND KAREN M. GILL
210 SOUTH LOIS LANE
RICHARDSON, TX 75081
Phone 214-534-2791
Manager: DAVID B. GILL
210 SOUTH LOIS LANE
RICHARDSON, TX 75081
Phone 214-534-2791

Additional Remarks

FOR CD CTC HOUSTON ARTCC AT 281-230-5622.

Instrument Procedures

There are no published instrument procedures at 2TX9.

Some nearby airports with instrument procedures:

KBBD - Curtis Field Airport (28 nm W)
KBWD - Brownwood Regional Airport (29 nm N)
KAQO - Llano Municipal Airport (33 nm S)
KLZZ - Lampasas Airport (34 nm SE)
KMKN - Comanche County-City Airport (37 nm N)
 
Loc | Ops | Rwys | IFR | FBO | Links
Com | Nav | Svcs | Stats | Notes
Aerial photo
No photo
 
Airport distance calculator
Flying to Buzzard Creek Airstrip? Find the distance to fly.

From to 2TX9

Sunrise and sunset
Times for 03-Aug-2020
 Local
(UTC-5)
 Zulu
(UTC)
Morning civil twilight06:2811:28
Sunrise06:5511:55
Sunset20:2801:28
Evening civil twilight20:5401:54

Current date and time
Zulu (UTC)  03-Aug-2020 12:10:28
Local (UTC-5)  03-Aug-2020 07:10:28
 
METAR
KBBD 
28nm W 
031155Z AUTO 35007KT 10SM SCT070 BKN095 25/16 A3008 RMK AO2
KBWD 
29nm N 
031135Z AUTO 26003KT 10SM SCT090 22/16 A3006 RMK AO1
KAQO 
33nm S 
031155Z AUTO 00000KT 10SM CLR 22/18 A3004 RMK AO2
KLZZ 
34nm SE 
031155Z AUTO 00000KT 10SM CLR 21/18 A3004 RMK AO2 T02110180 10255 20206
KMKN 
37nm N 
031158Z AUTO 00000KT 10SM CLR 22/16 A3005 RMK AO2
KMNZ 
39nm NE 
031155Z AUTO 00000KT 10SM CLR 22/17 A3006 RMK AO2 T02240172 10254 20220
KCOM 
43nm NW 
031155Z AUTO 30003KT 10SM CLR 25/15 A3008 RMK AO2 T02460150 10272 20235
KBMQ 
46nm SE 
031153Z AUTO 00000KT 10SM CLR 22/18 A3006 RMK AO2 SLP159 T02220183 10256 20217 52007
TAF
KBBD 
28nm W 
031120Z 0312/0412 32006KT P6SM VCSH BKN120 FM032100 12006KT P6SM VCTS SCT060CB FM040000 11006KT P6SM SCT250
NOTAMs
Click for the latest NOTAMs
NOTAMs are issued by the DoD/FAA and will open in a separate window not controlled by AirNav.

 

 
 

Would you like to see your business listed on this page?

 If your business provides an interesting product or service to pilots, flight crews, aircraft, or users of the Buzzard Creek Airstrip, you should consider listing it here.  To start the listing process, click on the button below
 
Add a business
 

Other Pages about Buzzard Creek Airstrip

Update a link
 
Copyright © AirNav, LLC. All rights reserved. Privacy Policy  Contact